Champion, NE (69023)

9:26 AM MDT on July 24, 2016 (GMT -0600)
Imperial Municipal | | Change Station

Elev 3274 ft 40.51 °N, 101.62 °W | Updated 33 minutes ago

Clear
Clear
76 °F
Feels Like 76 °F
N
8
Wind Variable Wind from ENE

Today
High -- | Low -- °F
--% Chance of Precip.
Yesterday
High -- | Low -- °F
Precip. -- in
Pressure 30.04 in
Visibility 10.0 miles
Clouds Clear
Dew Point 55 °F
Humidity 48%
Rainfall 0.00 in
Snow Depth Not available.
5:37 AM 8:09 PM
Waning Gibbous, 75% visible
METAR KIML 241453Z AUTO 06007KT 10SM CLR 24/13 A3014 RMK AO2 SLP170 T02440128 52029
Pressure 30.04 in
Visibility 10.0 miles
Clouds Clear
Dew Point 55 °F
Humidity 48%
Rainfall 0.00 in
Snow Depth Not available.
5:37 AM 8:09 PM
Waning Gibbous, 75% visible
METAR KIML 241453Z AUTO 06007KT 10SM CLR 24/13 A3014 RMK AO2 SLP170 T02440128 52029

10-Day Weather Forecast

Almanac

Astronomy

Jul. 24, 2016 Rise Set
Actual Time
Civil Twilight
Nautical Twilight
Astronomical Twilight
Moon
Length of Visible Light
Length of Day
Tomorrow will be .
, % of the Moon is Illuminated

Today's Extremes

State Highs State Lows

Community

WunderPhotos

Upload Photos

1,927,086 photos uploaded!

WunderBlog® & News

Nearby

Air Quality

  Air Quality AQ Index Pollutant
Not available.

Snow Depth

Station Depth Elevation

Earthquake Activity

City Distance Mag. Time & Date
Minimum magnitude displayed is 2.5.

Coastal Water Temperatures

Place Temperature

Stations

Nearby Weather Stations

Station Location Temp. Windchill Dew Point Humidity Wind Precip. Elev Updated Type
                   

Watches & Warnings

There are currently no watches in effect.